Flag for Estonia Weather past 2 weeks in Kohtla-Järve, Estonia

Now
40 °F

Light rain. Overcast.


Feels Like: 33 °F
Forecast: 34 / 39 °F
Wind: 12 mph from Southwest

Location: Johvi

Current Time: Mar 31, 2015 at 1:43:36 PM

Latest Report: Mar 31, 2015 at 1:00 PM


Visibility: 22 mi

Pressure: 29.15 "Hg

Humidity: 83%

Dew point: 35 °F

Location of Kohtla-JärveLocation

Historic Weather in Kohtla-Järve — Graph

°F

Kohtla-Järve temperature yesterday

Maximum temperature yesterday: 37 °F (at 12:00 PM)
Minimum temperature yesterday: 32 °F (at 6:00 AM)
Average temperature yesterday: 34 °F

Past Weeks' High & Low Weather Summary

 TemperatureHumidityPressure
High57 °F (Mar 18, 2:00 PM)99% (Mar 29, 5:00 AM)31.08 "Hg (Mar 29, 5:00 AM)
Low22 °F (Mar 26, 6:00 AM)14% (Mar 18, 2:00 PM)29.00 "Hg (Mar 31, 7:00 AM)
Average36 °F65%30.08 "Hg
* Reported Mar 16 11:00 AM — Mar 31 12:00 Noon, Kohtla-Järve, Weather by CustomWeather, © 2015

Note: Actual official high and low records may vary slightly from our data, if they occured in-between our weather recording intervals... More about our weather records

Advertising

Kohtla-Järve weather history for previous 24 hours

 ConditionsComfort  
Time TempWeatherWind HumidityBarometerVisibility
12:00 PM
Tue, Mar 31
40 °FOvercast.12 mph83%29.12 "Hg31 mi
11:00 AM39 °FOvercast.12 mph89%29.09 "Hg31 mi
10:00 AM40 °FOvercast.12 mph89%29.06 "Hg31 mi
8:00 AM38 °FRain. Overcast.12 mph93%29.03 "Hg5 mi
7:00 AM40 °FLight rain. Overcast.15 mph87%29.00 "Hg4 mi
5:00 AM40 °FDrizzle. Overcast.12 mph85%29.03 "Hg9 mi
4:00 AM39 °FOvercast.9 mph88%29.06 "Hg25 mi
3:00 AM38 °FOvercast.8 mph90%29.09 "Hg22 mi
2:00 AM38 °FLow clouds.8 mph93%29.12 "Hg22 mi
1:00 AM37 °FLow clouds.9 mph92%29.15 "Hg25 mi
12:00 AM36 °FLow clouds.9 mph93%29.15 "Hg28 mi
11:00 PM
Mon, Mar 30
36 °FLow clouds.9 mph93%29.15 "Hg22 mi
10:00 PM35 °FLight rain. Low clouds.8 mph95%29.15 "Hg6 mi
9:00 PM34 °FFreezing rain. Low clouds.9 mph95%29.15 "Hg4 mi
8:00 PM34 °FFreezing rain. Low clouds.9 mph94%29.18 "Hg1 mi
7:00 PM34 °FHeavy snow. Low clouds.8 mph96%29.18 "Hg1 mi
6:00 PM34 °FHeavy snow. Low clouds.7 mph95%29.21 "Hg4 mi
5:00 PM35 °FFreezing rain. Overcast.9 mph86%29.21 "Hg4 mi
4:00 PM36 °FRain showers. Overcast.9 mph77%29.21 "Hg17 mi
3:00 PM37 °FOvercast.9 mph72%29.23 "Hg28 mi
2:00 PM37 °FOvercast.8 mph72%29.26 "Hg28 mi
1:00 PM37 °FOvercast.10 mph69%29.26 "Hg22 mi
Weather by CustomWeather, © 2015

See weather overviewHow to use our weather pages